Change the Weather History Date:

Wednesday, May 1, 2013

  Actual Average (KOMA) Record (KOMA)
Temperature  
Mean Temperature 48 °F 58 °F  
Max Temperature 59 °F 69 °F 93 °F (1959)
Min Temperature 34 °F 46 °F 25 °F (1909)
Degree Days  
Heating Degree Days 17 8  
Month to date heating degree days 8  
Since 1 July heating degree days 6010  
Cooling Degree Days 0 1  
Month to date cooling degree days 1  
Year to date cooling degree days 17  
Moisture  
Dew Point 37 °F    
Average Humidity 81    
Maximum Humidity 96    
Minimum Humidity 44    
Precipitation  
Precipitation 0.81 in 0.13 in 1.42 in (1951)
Month to date precipitation 0.13  
Year to date precipitation 6.65  
Snow  
Snow 0.00 in 0.00 in - ()
Month to date snowfall 0.0  
Since 1 July snowfall 26.4  
Snow Depth -    
Sea Level Pressure  
Sea Level Pressure 30.21 in    
Wind  
Wind Speed 10 mph (North)    
Max Wind Speed 16 mph    
Max Gust Speed 28 mph    
Visibility 7 miles    
Events Rain , Snow , Thunderstorm    
T = Trace of Precipitation, MM = Missing Value Source: NWS Daily Summary

Daily Weather History Graph

Daily Weather History Graph

Search for Another Location

Airport or City:

Trip Planner

Search our weather history database for the weather conditions in past years. The results will help you decide how hot, cold, wet, or windy it might be!

Date:

Astronomy

May. 01, 2013 Rise Set
Actual Time 6:21 AM CDT 8:21 PM CDT
Civil Twilight 5:51 AM CDT 8:52 PM CDT
Nautical Twilight 5:15 AM CDT 9:28 PM CDT
Astronomical Twilight 4:35 AM CDT 10:08 PM CDT
Moon 1:32 AM CDT (5/1) 12:01 PM CDT (5/1)
Length of Visible Light 15h 00m
Length of Day
14h 00m
Waning Gibbous, 59% of the Moon is Illuminated
May 1
Waning Gibbous
May 2
Last Quarter
May 9
New
May 17
First Quarter
May 24
Full

Hourly Weather History & Observations

Time (CDT) Temp. Windchill Dew Point Humidity Pressure Visibility Wind Dir Wind Speed Gust Speed Precip Events Conditions
12:15 AM 62.2 °F - 41.4 °F 46% 29.90 in 10.0 mi North 8.1 mph - N/A   Overcast
12:35 AM 61.7 °F - 39.7 °F 44% 29.92 in 10.0 mi North 6.9 mph 18.4 mph N/A   Overcast
12:55 AM 59.9 °F - 42.1 °F 52% 29.93 in 10.0 mi North 12.7 mph 26.5 mph N/A   Overcast
1:15 AM 58.3 °F - 40.8 °F 52% 29.92 in 10.0 mi North 15.0 mph 24.2 mph N/A   Overcast
1:35 AM 57.4 °F - 41.5 °F 56% 29.95 in 10.0 mi North 11.5 mph 23.0 mph N/A   Overcast
2:15 AM 54.7 °F - 42.6 °F 64% 29.98 in 10.0 mi North 10.4 mph 21.9 mph N/A   Overcast
2:35 AM 52.7 °F - 42.8 °F 69% 30.00 in 10.0 mi North 10.4 mph 19.6 mph N/A   Mostly Cloudy
3:15 AM 52.2 °F - 42.3 °F 69% 29.98 in 10.0 mi North 12.7 mph 24.2 mph N/A   Mostly Cloudy
3:35 AM 51.8 °F - 41.4 °F 68% 30.01 in 10.0 mi North 12.7 mph 23.0 mph N/A Thunderstorm Mostly Cloudy
3:55 AM 51.4 °F - 40.3 °F 66% 30.03 in 10.0 mi North 16.1 mph 25.3 mph N/A   Overcast
4:15 AM 51.3 °F - 41.0 °F 68% 30.03 in 10.0 mi NNE 15.0 mph 25.3 mph N/A   Overcast
4:35 AM 50.9 °F - 41.0 °F 69% 30.04 in 10.0 mi NNE 11.5 mph 23.0 mph N/A   Overcast
4:55 AM 50.5 °F - 41.0 °F 70% 30.05 in 10.0 mi North 9.2 mph 23.0 mph N/A   Overcast
5:15 AM 50.0 °F - 41.0 °F 71% 30.05 in 10.0 mi NNE 11.5 mph 23.0 mph N/A   Overcast
5:35 AM 49.6 °F - 40.1 °F 70% 30.07 in 10.0 mi North 8.1 mph 20.7 mph N/A   Overcast
5:55 AM 49.6 °F - 40.1 °F 70% 30.08 in 10.0 mi NNE 12.7 mph 23.0 mph N/A   Overcast
6:15 AM 49.5 °F - 40.1 °F 70% 30.09 in 10.0 mi North 6.9 mph - N/A   Overcast
6:35 AM 49.3 °F - 39.7 °F 70% 30.09 in 10.0 mi NNE 8.1 mph 21.9 mph N/A   Overcast
6:55 AM 49.1 °F - 40.1 °F 71% 30.11 in 10.0 mi NNE 10.4 mph 23.0 mph N/A   Overcast
7:15 AM 48.6 °F - 40.5 °F 74% 30.14 in 10.0 mi North 9.2 mph 24.2 mph N/A   Overcast
7:35 AM 48.4 °F - 40.6 °F 75% 30.15 in 10.0 mi NNE 8.1 mph 17.3 mph N/A   Overcast
8:15 AM 48.2 °F - 41.0 °F 76% 30.15 in 10.0 mi North 11.5 mph 19.6 mph N/A   Overcast
8:35 AM 47.8 °F - 40.6 °F 76% 30.15 in 10.0 mi North 13.8 mph 23.0 mph N/A   Overcast
8:55 AM 47.5 °F - 40.8 °F 78% 30.17 in 10.0 mi North 6.9 mph 21.9 mph N/A   Overcast
9:15 AM 46.6 °F - 39.9 °F 78% 30.17 in 10.0 mi North 15.0 mph 24.2 mph N/A   Overcast
9:35 AM 45.5 °F 38.9 °F 38.7 °F 77% 30.18 in 10.0 mi North 15.0 mph 27.6 mph N/A   Overcast
10:15 AM 43.9 °F 38.8 °F 37.6 °F 78% 30.22 in 10.0 mi North 9.2 mph 20.7 mph N/A   Overcast
10:35 AM 43.2 °F 36.2 °F 37.4 °F 80% 30.21 in 10.0 mi North 13.8 mph 20.7 mph N/A   Overcast
10:55 AM 43.5 °F 37.5 °F 37.6 °F 80% 30.21 in 10.0 mi NNE 11.5 mph 20.7 mph N/A   Overcast
11:15 AM 43.7 °F 37.7 °F 36.9 °F 77% 30.22 in 10.0 mi NNE 11.5 mph 23.0 mph N/A   Overcast
11:35 AM 43.7 °F 36.6 °F 36.7 °F 76% 30.21 in 10.0 mi North 15.0 mph 23.0 mph N/A   Overcast
11:55 AM 43.3 °F 38.6 °F 36.5 °F 77% 30.23 in 10.0 mi North 8.1 mph 20.7 mph N/A   Overcast
12:15 PM 43.0 °F 36.8 °F 36.3 °F 77% 30.24 in 10.0 mi NNE 11.5 mph 21.9 mph N/A   Overcast
12:35 PM 43.0 °F 36.8 °F 36.5 °F 78% 30.25 in 10.0 mi NNE 11.5 mph 19.6 mph N/A   Overcast
12:55 PM 41.5 °F 34.6 °F 37.6 °F 86% 30.25 in 3.0 mi North 12.7 mph 19.6 mph N/A   Drizzle
1:15 PM 40.1 °F 34.1 °F 37.8 °F 91% 30.26 in 2.5 mi North 9.2 mph 18.4 mph N/A Rain Light Rain
1:35 PM 39.2 °F 33.0 °F 37.4 °F 93% 30.26 in 3.0 mi North 9.2 mph 18.4 mph 0.01 in Rain Light Rain
2:15 PM 39.2 °F 32.0 °F 37.4 °F 93% 30.27 in 3.0 mi NNW 11.5 mph 19.6 mph 0.03 in Rain Rain
2:35 PM 37.6 °F 30.5 °F 35.8 °F 93% 30.29 in 3.0 mi North 10.4 mph 18.4 mph 0.06 in Rain Rain
2:55 PM 37.4 °F 30.8 °F 35.8 °F 94% 30.29 in 2.5 mi North 9.2 mph 20.7 mph 0.11 in Rain Rain
3:15 PM 37.4 °F 30.3 °F 35.8 °F 94% 30.30 in 3.0 mi North 10.4 mph 16.1 mph 0.02 in Rain Rain
3:35 PM 37.4 °F 29.3 °F 35.8 °F 94% 30.30 in 5.0 mi North 12.7 mph 19.6 mph 0.05 in Rain Light Rain
3:55 PM 37.0 °F 29.8 °F 35.2 °F 93% 30.30 in 7.0 mi North 10.4 mph 18.4 mph 0.06 in   Drizzle
4:15 PM 36.7 °F 29.9 °F 34.9 °F 93% 30.31 in 4.0 mi North 9.2 mph 20.7 mph 0.01 in Rain Rain
4:35 PM 36.5 °F 31.8 °F 34.7 °F 93% 30.32 in 5.0 mi North 5.8 mph 19.6 mph 0.03 in Rain Rain
4:55 PM 36.5 °F 29.2 °F 34.7 °F 93% 30.32 in 5.0 mi North 10.4 mph 21.9 mph 0.03 in Rain , Thunderstorm Rain
5:15 PM 36.1 °F 27.3 °F 34.2 °F 93% 30.31 in 4.0 mi North 13.8 mph 21.9 mph 0.01 in Rain Light Rain
5:35 PM 35.8 °F 28.8 °F 34.2 °F 94% 30.33 in 1.2 mi North 9.2 mph 18.4 mph 0.10 in Rain Heavy Rain
6:15 PM 35.6 °F 27.5 °F 33.8 °F 93% 30.34 in 2.5 mi North 11.5 mph 20.7 mph 0.03 in Rain Rain
6:35 PM 35.1 °F 27.9 °F 33.3 °F 93% 30.36 in 2.5 mi North 9.2 mph 20.7 mph 0.08 in   Overcast
6:55 PM 34.7 °F 26.9 °F 32.9 °F 93% 30.34 in 2.5 mi North 10.4 mph 19.6 mph 0.11 in Rain Light Rain
7:15 PM 34.3 °F 29.2 °F 32.9 °F 94% 30.36 in 1.2 mi North 5.8 mph - 0.04 in Snow Light Snow
7:35 PM 34.7 °F 27.5 °F 32.9 °F 93% 30.35 in 2.0 mi North 9.2 mph 19.6 mph 0.09 in   Overcast
7:55 PM 34.7 °F 28.1 °F 32.9 °F 93% 30.34 in 2.5 mi North 8.1 mph 18.4 mph 0.14 in   Overcast
8:35 PM 34.7 °F 27.5 °F 33.3 °F 94% 30.37 in 3.0 mi NNW 9.2 mph 16.1 mph 0.09 in Rain , Thunderstorm Rain
8:55 PM 34.9 °F 26.6 °F 33.4 °F 94% 30.37 in 7.0 mi North 11.5 mph 17.3 mph 0.12 in Rain Light Rain
9:35 PM 34.9 °F 26.6 °F 33.4 °F 94% 30.39 in 5.0 mi NNW 11.5 mph 19.6 mph 0.02 in Rain Light Rain
9:55 PM 34.9 °F 26.6 °F 33.3 °F 94% 30.39 in 5.0 mi North 11.5 mph 23.0 mph 0.05 in Rain , Thunderstorm Light Thunderstorms and Rain
10:15 PM 34.9 °F 28.3 °F 33.3 °F 94% 30.37 in 4.0 mi North 8.1 mph 16.1 mph 0.02 in   Overcast
10:35 PM 35.2 °F 28.8 °F 33.8 °F 94% 30.41 in 7.0 mi North 8.1 mph - 0.05 in Rain Light Rain
10:55 PM 35.1 °F 28.6 °F 33.3 °F 93% 30.38 in 4.0 mi North 8.1 mph 23.0 mph 0.06 in Snow Light Snow
11:15 PM 34.7 °F 28.1 °F 33.1 °F 94% 30.39 in 2.0 mi North 8.1 mph - N/A Snow Light Snow
11:35 PM 34.3 °F 28.4 °F 33.1 °F 95% 30.41 in 2.5 mi North 6.9 mph 19.6 mph 0.02 in Snow Light Snow
11:55 PM 34.0 °F 28.8 °F 32.9 °F 96% 30.42 in 1.8 mi NNW 5.8 mph - 0.02 in Snow Light Snow